(90482) Orcus
ephemeris date magn radius delta ra dec elong phase
Today28 Jul 202619.147.983 AU48.688 AU10h39m-13°00'45.6°0.9°
Opposition8 Mar 202719.047.968 AU47.038 AU10h43m-14°16'159.3°0.4°
(90482) Orcus - 2026-07-28
astro.vanbuitenen.nl


 
-1 year
-1 month
-1 day
Now
+1 day
+1 month
+1 year

The interactive orbit chart above shows the body's path through the solar system and its position at the given date. Green and blue lines are shown perpendicular to the ecliptic plane: Green if the path is above the ecliptic plane, blue if it is below. (Left-click and drag to rotate the view; Right-click and drag to move the view; Use scroll wheel to zoom in our out.)

The orbital elements of Orcus are:

            e (Eccentricity)                : 0.2205384
            a (Semimajor axis)              : 39.3761338
            i (Inclination)                 : 20.55681
            Ω (Longitude of ascending node) : 268.40537
            ω (Argument of perihelion)      : 73.56374
            M (Mean anomaly)                : 189.10476
            Epoch                           : 2026 Jun 09

            L (Longitude of perihelion)     : 340.91751
            B (Latitude of perihelion)      : 19.68123
            P (Orbital period in years)     : 247.09            
        

The light curve chart below shows the estimated development of the minor planet's magnitude.


The all-sky chart below shows the path of the minor planet over the same period as the light curve. The current position is marked yellow.





The following chart shows the path of the minor planet in the next few days. The field of view is optimized for (~10x50) binoculars and finderscopes.




Ephemerides:
Date       Time       RA (2000)    DEC (2000)    delta   radius  elong  phase   PA    magn
2026-07-28 00:00 UT   10 39 09.6   -13 00 36    48.688   47.983   45.6    0.9   134   19.1 
2026-07-28 03:34 UT   10 39 10.3   -13 00 37    48.690   47.983   45.5    0.9   134   19.1 
2026-07-29 00:00 UT   10 39 14.0   -13 00 47    48.699   47.983   44.8    0.9   135   19.1 
2026-07-30 00:00 UT   10 39 18.5   -13 00 58    48.709   47.983   44.0    0.8   135   19.1 
2026-07-31 00:00 UT   10 39 22.9   -13 01 10    48.719   47.983   43.1    0.8   136   19.1 
2026-08-01 00:00 UT   10 39 27.4   -13 01 23    48.729   47.983   42.3    0.8   137   19.1 
2026-08-02 00:00 UT   10 39 32.0   -13 01 37    48.738   47.983   41.5    0.8   138   19.1 
2026-08-03 00:00 UT   10 39 36.6   -13 01 51    48.747   47.983   40.7    0.8   138   19.1 
2026-08-04 00:00 UT   10 39 41.2   -13 02 05    48.757   47.983   39.9    0.8   139   19.1 
2026-08-05 00:00 UT   10 39 45.8   -13 02 20    48.766   47.983   39.1    0.8   140   19.1 
2026-08-06 00:00 UT   10 39 50.5   -13 02 36    48.774   47.983   38.3    0.8   141   19.1 
2026-08-07 00:00 UT   10 39 55.2   -13 02 52    48.783   47.983   37.6    0.7   141   19.1 
2026-08-08 00:00 UT   10 39 60.0   -13 03 09    48.791   47.983   36.8    0.7   142   19.1 
2026-08-09 00:00 UT   10 40 04.8   -13 03 26    48.799   47.983   36.0    0.7   143   19.1 
2026-08-10 00:00 UT   10 40 09.6   -13 03 44    48.807   47.982   35.2    0.7   144   19.1 
2026-08-11 00:00 UT   10 40 14.4   -13 04 03    48.814   47.982   34.5    0.7   145   19.1 
2026-08-12 00:00 UT   10 40 19.3   -13 04 22    48.822   47.982   33.7    0.7   146   19.1 
2026-08-13 00:00 UT   10 40 24.1   -13 04 42    48.829   47.982   33.0    0.7   147   19.1 
2026-08-14 00:00 UT   10 40 29.0   -13 05 02    48.836   47.982   32.3    0.6   148   19.1 
2026-08-15 00:00 UT   10 40 34.0   -13 05 23    48.842   47.982   31.5    0.6   149   19.1 
2026-08-16 00:00 UT   10 40 38.9   -13 05 44    48.849   47.982   30.8    0.6   151   19.1 
2026-08-17 00:00 UT   10 40 43.9   -13 06 06    48.855   47.982   30.1    0.6   152   19.1 
2026-08-18 00:00 UT   10 40 48.9   -13 06 28    48.861   47.982   29.4    0.6   153   19.1 
2026-08-19 00:00 UT   10 40 53.9   -13 06 51    48.867   47.982   28.8    0.6   154   19.1 
2026-08-20 00:00 UT   10 40 58.9   -13 07 14    48.872   47.982   28.1    0.6   156   19.1 
2026-08-21 00:00 UT   10 41 03.9   -13 07 38    48.877   47.982   27.5    0.6   157   19.1 
2026-08-22 00:00 UT   10 41 09.0   -13 08 03    48.882   47.982   26.8    0.5   159   19.1 
2026-08-23 00:00 UT   10 41 14.1   -13 08 27    48.887   47.982   26.2    0.5   160   19.1 
2026-08-24 00:00 UT   10 41 19.1   -13 08 53    48.891   47.982   25.6    0.5   162   19.1 
2026-08-25 00:00 UT   10 41 24.2   -13 09 19    48.895   47.981   25.1    0.5   164   19.1 
2026-08-26 00:00 UT   10 41 29.3   -13 09 45    48.899   47.981   24.5    0.5   166   19.1 
2026-08-27 00:00 UT   10 41 34.4   -13 10 12    48.903   47.981   24.0    0.5   168   19.1 


    Terminology:
            
    delta:  distance between minor planet and earth in AU
    radius: distance between minor planet and sun in AU
    magn:   magnitude (brightness) estimate    
    ra:     right ascension in hours (24h = 360deg)
    dec:    declination in degrees
    elong:  elongation in degrees (angle sun-earth-minor planet)    
    phase:  phase angle in degrees (angle sun-minor planet-earth)        
    AU:     Astronomical Unit (mean distance between earth and sun: 149597870.7 km
    

Orbital elements provided by the MPC (Minor Planet Center).
Calculations by a modified version of AAPlus, a C# implementation of the AA+ project by PJ Naughter from the algorithms presented in the book "Astronomical Algorithms" by Jean Meeus.
NGC2000 dso catalog and star labels from VizieR as provided by the Strasbourg astronomical Data Center.
Tycho2 catalog from the ESO archive.